Location: New York
(40.7127°N, 74.0060°W)
Time: 10:03:45
(UTC-05:00)

BlueWalker 3 - Pass Details

Date: 03 December 2023
Orbit: 485 x 499 km, 53.2° (Epoch: 02 March)

Event Time Altitude Azimuth Distance (km) Brightness Sun altitude
Exits shadow 03:33:59 - 68° (ENE) 2,120 5.8 -38.8°
Enters shadow 04:33:35 -63° 291° (WNW) 11,969 8.9 -27.6°
Maximum altitude 05:09:12 48° 34° (NE) 652 2.5 -20.9°
